�N����,����,�~����,�C��,���x,�C��,����,���ϕ���,�ő�u�ԕ���,�ő厞����,���˗�,�I�_���x,�n�����x,�ő啗���N��,DTYPE
"16/07/21","00:10",0.0,21.8,82.8,1006.2,293.9,1.0,1.7,317.6,0.00,18.8,25.5,"00:04:08",1
"16/07/21","00:20",0.0,21.7,83.0,1006.4,285.7,0.7,1.3,304.7,0.00,18.7,25.5,"00:11:20",1
"16/07/21","00:30",0.0,21.6,83.5,1006.4,298.7,0.7,2.0,320.4,0.00,18.7,25.2,"00:23:36",1
"16/07/21","00:40",0.0,21.6,83.6,1006.2,297.2,0.8,1.7,347.4,0.00,18.7,25.2,"00:33:28",1
"16/07/21","00:50",0.0,21.6,83.4,1006.4,277.4,0.8,2.2,239.8,0.00,18.7,25.0,"00:46:24",1
"16/07/21","01:00",0.0,21.5,83.4,1006.7,294.8,0.8,1.6,305.2,0.00,18.6,25.1,"00:53:20",1
"16/07/21","01:10",0.0,21.5,84.2,1006.4,308.6,0.8,1.6,313.8,0.00,18.8,25.0,"01:08:40",1
"16/07/21","01:20",0.0,21.4,84.8,1006.4,306.0,1.0,1.6,324.9,0.00,18.8,24.9,"01:15:52",1
"16/07/21","01:30",0.0,21.3,85.3,1006.7,304.8,1.0,1.7,314.3,0.00,18.8,25.1,"01:26:24",1
"16/07/21","01:40",0.0,21.4,85.6,1006.7,319.9,1.0,2.2,331.3,0.00,18.9,25.0,"01:36:16",1
"16/07/21","01:50",0.0,21.4,85.9,1006.4,311.5,1.1,2.0,342.5,0.00,19.0,25.1,"01:42:32",1
"16/07/21","02:00",0.0,21.3,86.2,1006.9,317.9,1.1,1.8,332.1,0.00,18.9,24.7,"01:53:04",1
"16/07/21","02:10",0.0,21.2,86.6,1006.7,307.7,0.8,1.4,311.0,0.00,18.9,24.8,"02:01:04",1
"16/07/21","02:20",0.0,21.0,87.1,1006.9,295.9,0.7,1.4,342.1,0.00,18.8,24.8,"02:12:00",1
"16/07/21","02:30",0.0,20.9,87.4,1006.2,288.9,0.7,1.1,314.6,0.00,18.8,24.8,"02:24:32",1
"16/07/21","02:40",0.0,20.8,87.8,1006.9,301.7,0.7,1.3,337.4,0.00,18.7,24.6,"02:33:04",1
"16/07/21","02:50",0.0,20.8,88.2,1006.7,311.5,0.8,1.6,326.1,0.00,18.8,24.6,"02:48:00",1
"16/07/21","03:00",0.0,20.8,88.5,1006.7,319.3,1.1,2.4,356.0,0.00,18.9,24.6,"02:55:52",1
"16/07/21","03:10",0.0,21.0,88.2,1006.9,327.5,1.3,2.7,354.4,0.00,19.0,24.5,"03:06:00",1
"16/07/21","03:20",0.0,21.0,88.0,1006.7,320.0,1.2,2.4,348.5,0.00,19.0,24.5,"03:10:48",1
"16/07/21","03:30",0.0,20.9,88.0,1006.4,302.3,0.8,1.6,326.0,0.00,18.9,24.5,"03:20:32",1
"16/07/21","03:40",0.0,20.8,88.4,1007.1,303.5,1.0,1.3,323.7,0.00,18.9,24.5,"03:35:20",1
"16/07/21","03:50",0.0,20.7,88.5,1006.9,310.8,1.0,1.7,316.7,0.00,18.8,24.3,"03:49:28",1
"16/07/21","04:00",0.0,20.7,88.4,1006.7,323.8,1.2,2.1,329.0,0.00,18.8,24.5,"03:52:48",1
"16/07/21","04:10",0.0,20.6,88.7,1006.7,314.3,1.1,1.8,319.0,0.00,18.7,24.3,"04:00:48",1
"16/07/21","04:20",0.0,20.6,89.1,1006.7,322.7,1.2,2.2,338.4,0.00,18.8,24.3,"04:17:12",1
"16/07/21","04:30",0.0,20.7,89.2,1006.4,321.1,1.1,2.8,346.7,0.00,18.9,24.3,"04:22:00",1
"16/07/21","04:40",0.0,20.7,89.2,1006.4,325.6,1.3,2.5,341.4,0.00,18.9,24.1,"04:37:04",1
"16/07/21","04:50",0.0,20.7,89.2,1006.4,326.2,1.6,3.1,340.9,0.00,18.9,24.2,"04:48:24",1
"16/07/21","05:00",0.0,20.8,89.1,1006.4,324.0,1.6,2.8,346.7,0.00,19.0,24.4,"04:52:24",1
"16/07/21","05:10",0.0,20.8,88.8,1006.4,331.6,1.5,2.2,351.3,0.00,18.9,24.1,"05:06:56",1
"16/07/21","05:20",0.0,20.8,88.8,1006.9,337.4,1.5,3.1,339.7,0.00,18.9,24.0,"05:16:32",1
"16/07/21","05:30",0.0,20.8,88.5,1007.1,336.6,1.6,2.4,350.1,0.00,18.9,24.1,"05:23:12",1
"16/07/21","05:40",0.0,20.9,88.8,1006.9,325.4,1.5,3.2,337.5,0.00,19.0,24.2,"05:37:12",1
"16/07/21","05:50",0.0,21.1,88.5,1006.9,337.3,1.6,2.8,342.4,0.00,19.2,24.1,"05:49:12",1
"16/07/21","06:00",0.0,21.4,88.1,1007.1,327.2,1.5,2.6,335.3,0.01,19.4,24.0,"05:56:40",1
"16/07/21","06:10",0.0,21.7,87.0,1007.1,336.1,1.6,3.9,336.8,0.02,19.5,24.2,"06:07:12",1
"16/07/21","06:20",0.0,21.9,86.3,1007.4,328.4,1.5,3.6,343.5,0.02,19.5,24.1,"06:12:56",1
"16/07/21","06:30",0.0,22.2,86.0,1007.4,322.9,1.1,2.1,342.2,0.04,19.8,24.2,"06:22:56",1
"16/07/21","06:40",0.0,22.8,85.0,1007.4,322.1,1.1,2.1,332.9,0.07,20.2,24.2,"06:30:16",1
"16/07/21","06:50",0.0,23.0,82.9,1007.4,325.6,1.1,2.7,354.8,0.05,20.0,24.2,"06:49:20",1
"16/07/21","07:00",0.0,23.2,83.8,1007.4,314.9,1.0,2.0,336.9,0.06,20.3,24.2,"06:52:00",1
"16/07/21","07:10",0.0,24.5,77.9,1007.4,326.0,0.6,1.8,9.7,0.15,20.4,24.5,"07:03:28",1
"16/07/21","07:20",0.0,25.1,75.4,1007.4,344.7,0.7,2.9,350.7,0.16,20.5,24.5,"07:11:20",1
"16/07/21","07:30",0.0,25.5,76.6,1007.4,347.0,0.5,1.6,18.1,0.18,21.1,24.6,"07:24:56",1
"16/07/21","07:40",0.0,26.1,73.0,1007.1,355.8,0.5,1.3,1.2,0.21,20.9,24.7,"07:37:28",1
"16/07/21","07:50",0.0,25.9,70.7,1006.7,303.8,0.5,1.6,229.0,0.21,20.2,24.8,"07:46:24",1
"16/07/21","08:00",0.0,26.4,70.3,1006.4,19.2,0.3,1.4,358.9,0.22,20.6,25.0,"07:55:44",1
"16/07/21","08:10",0.0,26.8,66.5,1006.0,1.7,0.3,1.9,16.7,0.26,20.1,25.2,"08:08:56",1
"16/07/21","08:20",0.0,26.7,68.3,1006.4,135.2,0.5,1.3,217.0,0.26,20.4,25.2,"08:18:24",1
"16/07/21","08:30",0.0,27.0,65.6,1006.7,96.6,0.6,1.3,147.8,0.30,20.0,25.2,"08:25:36",1
"16/07/21","08:40",0.0,27.5,64.3,1006.7,54.1,0.6,1.3,56.0,0.33,20.2,25.6,"08:32:40",1
"16/07/21","08:50",0.0,27.5,66.6,1006.9,173.4,0.7,1.6,223.3,0.35,20.8,25.7,"08:43:28",1
"16/07/21","09:00",0.0,28.5,65.8,1006.9,155.2,0.5,1.4,168.0,0.38,21.5,25.9,"08:54:24",1
"16/07/21","09:10",0.0,28.6,62.2,1007.1,34.5,0.7,2.6,13.8,0.40,20.7,26.0,"09:05:12",1
"16/07/21","09:20",0.0,28.9,58.9,1007.1,61.5,0.5,1.4,49.5,0.42,20.1,26.3,"09:12:24",1
"16/07/21","09:30",0.0,29.2,59.5,1007.4,34.9,0.5,1.8,24.9,0.43,20.5,26.4,"09:29:20",1
"16/07/21","09:40",0.0,29.2,61.1,1007.4,100.1,1.0,2.0,41.1,0.45,21.0,26.7,"09:30:24",1
"16/07/21","09:50",0.0,29.4,57.2,1007.4,89.6,0.8,2.2,15.8,0.46,20.1,26.7,"09:46:48",1
"16/07/21","10:00",0.0,29.4,55.7,1007.4,147.6,0.8,2.1,214.4,0.48,19.7,27.2,"09:55:52",1
"16/07/21","10:10",0.0,29.9,55.9,1007.6,23.7,0.7,1.7,41.8,0.49,20.2,27.2,"10:04:48",1
"16/07/21","10:20",0.0,30.2,56.5,1007.6,42.5,0.6,1.6,207.5,0.49,20.6,27.6,"10:10:56",1
"16/07/21","10:30",0.0,30.3,56.3,1007.4,80.0,0.8,1.6,60.0,0.52,20.7,27.8,"10:23:44",1
"16/07/21","10:40",0.0,30.1,57.9,1007.6,114.4,0.8,2.6,17.3,0.44,20.9,27.7,"10:30:24",1
"16/07/21","10:50",0.0,30.2,60.9,1007.4,137.4,0.5,1.3,128.8,0.33,21.9,27.8,"10:44:16",1
"16/07/21","11:00",0.0,30.5,60.9,1007.1,192.9,0.6,3.2,226.9,0.41,22.1,28.3,"10:51:04",1
"16/07/21","11:10",0.0,29.8,60.0,1006.9,212.6,1.0,2.5,191.3,0.25,21.2,28.3,"11:01:36",1
"16/07/21","11:20",0.0,29.7,59.3,1006.9,9.9,1.1,2.8,41.9,0.23,21.0,28.3,"11:16:24",1
"16/07/21","11:30",0.0,30.3,60.6,1006.2,45.1,1.3,2.9,17.7,0.39,21.9,28.5,"11:24:00",1
"16/07/21","11:40",0.0,29.4,59.5,1006.2,98.2,1.0,2.4,7.6,0.22,20.7,28.5,"11:32:16",1
"16/07/21","11:50",0.0,30.2,59.3,1005.7,52.9,0.8,2.1,12.2,0.29,21.4,28.5,"11:44:40",1
"16/07/21","12:00",0.0,30.1,60.8,1005.5,2.1,1.2,2.7,2.6,0.30,21.7,28.6,"11:55:36",1
"16/07/21","12:10",0.0,30.2,61.0,1005.2,15.5,1.1,2.5,7.8,0.29,21.9,28.7,"12:09:44",1
"16/07/21","12:20",0.0,31.8,55.4,1005.5,10.5,1.2,4.7,351.7,0.61,21.8,28.8,"12:10:48",1
"16/07/21","12:30",0.0,31.2,56.2,1005.7,16.2,1.2,3.3,354.5,0.51,21.5,28.9,"12:22:00",1
"16/07/21","12:40",0.0,32.3,52.8,1005.7,21.1,1.0,3.1,353.0,0.64,21.5,29.2,"12:33:20",1
"16/07/21","12:50",0.0,31.7,55.8,1006.0,10.0,1.0,3.1,3.8,0.47,21.8,29.2,"12:49:52",1
"16/07/21","13:00",0.0,30.6,58.8,1006.0,2.7,1.5,3.1,44.5,0.39,21.7,29.3,"12:56:00",1
"16/07/21","13:10",0.0,31.1,59.3,1005.7,352.8,0.6,1.8,349.9,0.35,22.3,29.4,"13:01:36",1
"16/07/21","13:20",0.0,32.2,53.1,1006.0,353.0,0.5,1.6,4.3,0.59,21.5,29.5,"13:11:36",1
"16/07/21","13:30",0.0,32.0,53.9,1006.4,14.6,0.7,2.2,349.5,0.50,21.5,29.4,"13:24:32",1
"16/07/21","13:40",0.0,31.1,57.7,1006.2,348.4,0.7,2.4,352.8,0.27,21.8,29.5,"13:35:12",1
"16/07/21","13:50",0.0,32.0,58.5,1006.0,22.2,1.0,2.1,12.6,0.44,22.9,29.5,"13:41:28",1
"16/07/21","14:00",0.0,30.7,56.4,1005.7,114.1,0.5,1.9,102.9,0.14,21.1,29.4,"13:50:08",1
"16/07/21","14:10",0.0,30.8,60.3,1005.5,7.0,0.3,2.0,342.5,0.21,22.3,29.7,"14:06:00",1
"16/07/21","14:20",0.0,30.7,58.0,1005.2,3.8,0.7,3.1,352.8,0.23,21.5,29.3,"14:17:04",1
"16/07/21","14:30",0.0,30.2,58.3,1004.5,26.9,1.2,2.6,348.7,0.13,21.1,29.4,"14:24:40",1
"16/07/21","14:40",0.0,30.0,60.3,1004.3,340.3,0.5,2.2,359.1,0.11,21.5,29.5,"14:35:20",1
"16/07/21","14:50",0.0,31.1,56.9,1004.3,2.3,1.2,3.1,2.6,0.26,21.6,29.3,"14:49:52",1
"16/07/21","15:00",0.0,32.4,55.5,1004.5,349.9,1.1,2.8,0.3,0.46,22.4,29.7,"14:54:32",1
"16/07/21","15:10",0.0,31.5,54.1,1005.0,13.6,2.0,3.9,353.8,0.34,21.1,29.6,"15:08:36",1
"16/07/21","15:20",0.0,31.8,56.1,1004.5,11.3,1.7,3.4,1.9,0.34,22.0,29.6,"15:13:20",1
"16/07/21","15:30",0.0,31.8,55.5,1005.0,350.5,1.0,3.4,357.5,0.35,21.8,29.5,"15:29:36",1
"16/07/21","15:40",0.0,31.6,57.4,1004.3,4.3,1.5,3.6,324.6,0.35,22.2,29.7,"15:37:36",1
"16/07/21","15:50",0.0,31.4,57.8,1004.3,6.3,1.7,4.1,350.4,0.32,22.1,29.4,"15:47:36",1
"16/07/21","16:00",0.0,31.1,57.3,1004.3,3.0,1.7,3.2,36.9,0.29,21.7,29.4,"15:54:48",1
"16/07/21","16:10",0.0,31.0,56.8,1003.8,9.7,1.6,2.9,15.8,0.23,21.5,29.3,"16:09:04",1
"16/07/21","16:20",0.0,31.2,55.7,1004.1,3.8,1.5,3.2,352.8,0.32,21.3,29.5,"16:19:12",1
"16/07/21","16:30",0.0,31.2,55.6,1003.8,8.7,1.3,3.3,350.4,0.28,21.3,29.5,"16:25:12",1
"16/07/21","16:40",0.0,31.0,57.4,1004.1,356.2,1.2,3.4,359.9,0.24,21.6,29.3,"16:36:48",1
"16/07/21","16:50",0.0,30.8,57.8,1003.8,359.9,1.6,3.5,5.3,0.23,21.6,29.2,"16:41:12",1
"16/07/21","17:00",0.0,30.6,56.8,1003.4,8.0,1.7,4.0,6.7,0.19,21.1,29.2,"16:54:24",1
"16/07/21","17:10",0.0,30.6,58.5,1003.6,11.9,1.3,3.1,356.6,0.14,21.6,29.1,"17:03:28",1
"16/07/21","17:20",0.0,30.2,59.3,1003.6,0.4,1.8,4.1,349.3,0.07,21.4,29.3,"17:15:44",1
"16/07/21","17:30",0.0,29.7,59.9,1003.4,346.4,1.7,3.4,351.3,0.05,21.1,28.9,"17:29:12",1
"16/07/21","17:40",0.0,29.6,61.0,1003.1,350.0,1.2,2.7,13.9,0.05,21.3,28.9,"17:31:12",1
"16/07/21","17:50",0.0,29.4,60.0,1002.9,356.1,2.0,4.1,354.6,0.05,20.9,28.9,"17:44:48",1
"16/07/21","18:00",0.0,29.1,60.9,1002.9,349.4,1.8,3.9,338.4,0.05,20.8,28.8,"17:52:32",1
"16/07/21","18:10",0.0,28.8,61.8,1002.9,344.4,1.3,3.3,353.1,0.04,20.8,28.6,"18:09:04",1
"16/07/21","18:20",0.0,28.2,62.5,1002.6,348.8,2.0,5.8,335.2,0.02,20.4,28.4,"18:15:12",1
"16/07/21","18:30",0.0,27.8,63.7,1003.4,358.2,2.5,5.9,345.5,0.01,20.3,28.4,"18:28:00",1
"16/07/21","18:40",0.0,27.3,65.7,1003.4,342.2,2.2,4.3,350.1,0.00,20.4,28.4,"18:36:24",1
"16/07/21","18:50",0.0,26.8,66.6,1003.8,352.8,2.5,6.2,335.6,0.00,20.1,28.2,"18:44:56",1
"16/07/21","19:00",0.0,26.3,67.5,1003.8,354.6,2.7,5.0,3.2,0.00,19.8,28.2,"18:58:40",1
"16/07/21","19:10",0.0,25.9,68.1,1004.1,349.6,2.5,4.5,350.2,0.00,19.6,28.0,"19:06:00",1
"16/07/21","19:20",0.0,25.6,68.7,1004.1,342.0,2.0,6.3,352.6,0.00,19.5,27.7,"19:18:56",1
"16/07/21","19:30",0.0,25.3,68.4,1004.3,347.0,1.7,4.2,339.0,0.00,19.1,27.6,"19:21:20",1
"16/07/21","19:40",0.0,25.1,68.1,1004.5,352.0,1.8,5.0,341.6,0.00,18.8,27.5,"19:33:52",1
"16/07/21","19:50",0.0,24.9,69.1,1004.8,340.2,1.2,3.2,359.5,0.00,18.9,27.4,"19:40:48",1
"16/07/21","20:00",0.0,24.8,69.8,1004.8,344.9,1.6,3.4,7.3,0.00,19.0,27.3,"19:52:08",1
"16/07/21","20:10",0.0,24.7,69.8,1005.0,349.6,1.6,4.3,333.6,0.00,18.9,27.3,"20:08:48",1
"16/07/21","20:20",0.0,24.5,70.7,1004.8,347.9,1.2,2.6,0.8,0.00,18.9,27.0,"20:13:12",1
"16/07/21","20:30",0.0,24.2,71.9,1005.0,323.6,0.7,1.8,353.0,0.00,18.9,27.0,"20:21:36",1
"16/07/21","20:40",0.0,23.9,72.6,1005.2,313.8,0.7,1.2,317.9,0.00,18.7,26.8,"20:32:24",1
"16/07/21","20:50",0.0,23.7,75.2,1005.0,323.6,1.2,2.4,336.5,0.00,19.1,26.9,"20:46:08",1
"16/07/21","21:00",0.0,23.6,74.5,1005.0,345.9,1.3,2.6,359.5,0.00,18.8,26.7,"20:52:00",1
"16/07/21","21:10",0.0,23.7,74.8,1005.5,341.1,1.7,2.7,338.4,0.00,19.0,26.7,"21:07:04",1
"16/07/21","21:20",0.0,23.5,75.1,1005.5,315.5,1.5,1.9,316.0,0.00,18.9,26.5,"21:11:36",1
"16/07/21","21:30",0.0,23.4,74.7,1006.0,301.3,0.8,1.6,299.9,0.00,18.7,26.7,"21:22:40",1
"16/07/21","21:40",0.0,23.3,74.6,1005.7,299.8,0.8,1.7,331.5,0.00,18.6,26.2,"21:33:36",1
"16/07/21","21:50",0.0,23.2,75.8,1005.7,300.7,1.1,2.0,320.4,0.00,18.7,26.3,"21:46:24",1
"16/07/21","22:00",0.0,23.2,75.5,1006.0,310.2,1.2,2.9,347.7,0.00,18.7,26.2,"21:55:04",1
"16/07/21","22:10",0.0,23.1,76.2,1006.0,308.1,1.2,2.4,330.1,0.00,18.7,26.2,"22:02:16",1
"16/07/21","22:20",0.0,23.1,76.5,1005.5,306.2,1.2,2.4,340.1,0.00,18.8,26.0,"22:18:24",1
"16/07/21","22:30",0.0,23.0,76.7,1005.7,278.6,1.0,1.9,234.8,0.00,18.7,26.1,"22:28:24",1
"16/07/21","22:40",0.0,22.9,77.4,1006.0,285.1,1.0,1.4,304.4,0.00,18.8,26.0,"22:32:40",1
"16/07/21","22:50",0.0,22.8,77.1,1005.5,298.9,1.1,2.1,336.2,0.00,18.6,25.8,"22:49:28",1
"16/07/21","23:00",0.0,22.7,78.0,1005.5,316.1,1.3,2.5,338.9,0.00,18.7,25.8,"22:58:40",1
"16/07/21","23:10",0.0,22.5,79.3,1005.5,326.7,1.5,2.2,342.1,0.00,18.8,25.8,"23:08:32",1
"16/07/21","23:20",0.0,22.5,79.6,1005.5,332.1,2.1,3.3,344.0,0.00,18.8,25.9,"23:13:28",1
"16/07/21","23:30",0.0,22.4,80.0,1006.0,311.9,1.5,2.7,336.1,0.00,18.8,25.7,"23:22:24",1
"16/07/21","23:40",0.0,22.3,80.4,1005.7,301.4,1.1,1.9,336.2,0.00,18.8,25.7,"23:34:00",1
"16/07/21","23:50",0.0,22.2,80.8,1005.7,291.0,1.1,1.9,313.4,0.00,18.8,25.6,"23:41:12",1
"16/07/21","24:00",0.0,22.1,80.6,1005.2,281.1,1.0,1.4,244.8,0.00,18.6,25.4,"23:55:20",1
